When you browse on this site, cookies collect data to enhance your experience and personalize the content and advertising you see.
Visit our Privacy Policy to learn more. By continuing to use the site, you agree to this use of cookies and data.
  • In Belgium
  • List of Countries
  • For 7 days
  • Water Temperature
  • Satellite Maps
  • Weather Map
  • Weather Widgets
  • user-avatar
    Login

    Hourly Weather Etchmiadzin

    Today, 18 June, Tuesday

    Time Temperature Precipitation Wind Pressure Humidity
    00:00 +21°C° 0.5 mm 1 mps 685 mmHg 68%
    01:00 +21°C° 0.1 mm 1 mps 684 mmHg 68%
    02:00 +20°C° 0.1 mm 1 mps 684 mmHg 69%
    03:00 +20°C° 0 mm 1 mps 684 mmHg 70%
    04:00 +21°C° 0 mm 1 mps 684 mmHg 68%
    05:00 +22°C° 0 mm 1 mps 684 mmHg 65%
    06:00 +22°C° 0 mm 1 mps 685 mmHg 63%
    07:00 +24°C° 0 mm 1 mps 685 mmHg 56%
    08:00 +26°C° 0 mm 1 mps 685 mmHg 50%
    09:00 +28°C° 0 mm 1 mps 685 mmHg 44%
    10:00 +29°C° 0 mm 1 mps 685 mmHg 39%
    11:00 +31°C° 0 mm 1 mps 685 mmHg 34%
    12:00 +32°C° 0 mm 1 mps 685 mmHg 29%
    13:00 +34°C° 0 mm 2 mps 685 mmHg 28%
    14:00 +34°C° 0 mm 2 mps 684 mmHg 27%
    15:00 +34°C° 0 mm 2 mps 684 mmHg 24%
    16:00 +34°C° 0 mm 2 mps 684 mmHg 25%
    17:00 +32°C° 0 mm 2 mps 684 mmHg 27%
    18:00 +32°C° 0 mm 2 mps 684 mmHg 29%
    19:00 +29°C° 0.1 mm 2 mps 684 mmHg 34%
    20:00 +27°C° 0.1 mm 2 mps 684 mmHg 40%
    21:00 +25°C° 0.1 mm 3 mps 684 mmHg 45%
    22:00 +24°C° 0.5 mm 2 mps 684 mmHg 51%
    23:00 +23°C° 0.5 mm 2 mps 684 mmHg 56%

    Tomorrow, 19 June, Wednesday

    Time Temperature Precipitation Wind Pressure Humidity
    00:00 +21°C° 0.5 mm 2 mps 684 mmHg 62%
    01:00 +20°C° 0.4 mm 2 mps 684 mmHg 64%
    02:00 +21°C° 0.4 mm 1 mps 684 mmHg 65%
    03:00 +21°C° 0.4 mm 1 mps 684 mmHg 67%
    04:00 +21°C° 0.1 mm 1 mps 684 mmHg 65%
    05:00 +22°C° 0.1 mm 1 mps 684 mmHg 63%
    06:00 +22°C° 0.1 mm 1 mps 684 mmHg 61%
    07:00 +24°C° 0.2 mm 1 mps 684 mmHg 56%
    08:00 +25°C° 0.2 mm 1 mps 684 mmHg 52%
    09:00 +27°C° 0.2 mm 1 mps 684 mmHg 47%
    10:00 +28°C° 0.2 mm 1 mps 684 mmHg 43%
    11:00 +30°C° 0.2 mm 1 mps 684 mmHg 38%
    12:00 +31°C° 0.2 mm 1 mps 685 mmHg 34%
    13:00 +31°C° 0.1 mm 2 mps 684 mmHg 33%
    14:00 +32°C° 0.1 mm 2 mps 684 mmHg 32%
    15:00 +33°C° 0.1 mm 3 mps 684 mmHg 31%
    16:00 +31°C° 0.1 mm 3 mps 684 mmHg 33%
    17:00 +31°C° 0.1 mm 3 mps 684 mmHg 35%
    18:00 +30°C° 0.1 mm 3 mps 684 mmHg 37%
    19:00 +28°C° 0.2 mm 2 mps 684 mmHg 44%
    20:00 +26°C° 0.2 mm 2 mps 684 mmHg 50%
    21:00 +23°C° 0.2 mm 2 mps 684 mmHg 57%
    22:00 +23°C° 0 mm 2 mps 684 mmHg 57%
    23:00 +21°C° 0 mm 2 mps 684 mmHg 58%

    Day after tomorrow, 20 June, Thursday

    Time Temperature Precipitation Wind Pressure Humidity
    00:00 +22°C° 0 mm 1 mps 684 mmHg 58%
    01:00 +22°C° 0 mm 1 mps 684 mmHg 60%
    02:00 +21°C° 0 mm 1 mps 684 mmHg 61%
    03:00 +21°C° 0 mm 1 mps 684 mmHg 62%
    04:00 +22°C° 0 mm 1 mps 684 mmHg 61%
    05:00 +22°C° 0 mm 1 mps 684 mmHg 59%
    06:00 +23°C° 0 mm 1 mps 684 mmHg 57%
    07:00 +25°C° 0 mm 1 mps 684 mmHg 52%
    08:00 +26°C° 0 mm 1 mps 684 mmHg 46%
    09:00 +28°C° 0 mm 1 mps 685 mmHg 41%
    10:00 +29°C° 0.1 mm 2 mps 684 mmHg 37%
    11:00 +31°C° 0.1 mm 2 mps 684 mmHg 34%
    12:00 +32°C° 0.1 mm 2 mps 684 mmHg 30%
    13:00 +34°C° 0 mm 3 mps 684 mmHg 28%
    14:00 +35°C° 0 mm 3 mps 684 mmHg 25%
    15:00 +35°C° 0 mm 4 mps 684 mmHg 23%
    16:00 +35°C° 0 mm 4 mps 683 mmHg 25%
    17:00 +34°C° 0 mm 4 mps 683 mmHg 28%
    18:00 +33°C° 0 mm 3 mps 683 mmHg 30%
    19:00 +30°C° 0.2 mm 4 mps 683 mmHg 37%
    20:00 +27°C° 0.2 mm 4 mps 683 mmHg 44%
    21:00 +25°C° 0.2 mm 4 mps 683 mmHg 51%
    22:00 +24°C° 0.7 mm 3 mps 683 mmHg 56%
    23:00 +23°C° 0.7 mm 2 mps 683 mmHg 61%

    21 June, Friday

    Time Temperature Precipitation Wind Pressure Humidity
    00:00 +21°C° 0.7 mm 2 mps 683 mmHg 66%
    01:00 +21°C° 0.9 mm 1 mps 683 mmHg 69%
    02:00 +21°C° 0.9 mm 1 mps 683 mmHg 71%
    03:00 +21°C° 0.9 mm 1 mps 682 mmHg 74%
    04:00 +21°C° 0.9 mm 1 mps 683 mmHg 73%
    05:00 +21°C° 0.9 mm 1 mps 683 mmHg 72%
    06:00 +22°C° 0.9 mm 1 mps 683 mmHg 71%
    07:00 +23°C° 0.2 mm 1 mps 683 mmHg 64%
    08:00 +25°C° 0.2 mm 1 mps 683 mmHg 57%
    09:00 +27°C° 0.2 mm 1 mps 683 mmHg 51%
    10:00 +28°C° 0.2 mm 1 mps 683 mmHg 46%
    11:00 +30°C° 0.2 mm 1 mps 683 mmHg 41%
    12:00 +31°C° 0.2 mm 1 mps 683 mmHg 37%
    13:00 +32°C° 0.1 mm 2 mps 683 mmHg 34%
    14:00 +34°C° 0.1 mm 2 mps 683 mmHg 32%
    15:00 +34°C° 0.1 mm 2 mps 683 mmHg 30%
    16:00 +32°C° 0.2 mm 2 mps 684 mmHg 34%
    17:00 +31°C° 0.2 mm 2 mps 684 mmHg 38%
    18:00 +30°C° 0.2 mm 1 mps 684 mmHg 42%
    19:00 +28°C° 0.5 mm 2 mps 684 mmHg 48%
    20:00 +26°C° 0.5 mm 2 mps 684 mmHg 54%
    21:00 +24°C° 0.5 mm 2 mps 685 mmHg 60%
    22:00 +23°C° 0.1 mm 1 mps 684 mmHg 62%
    23:00 +22°C° 0.1 mm 1 mps 684 mmHg 64%

    22 June, Saturday

    Time Temperature Precipitation Wind Pressure Humidity
    00:00 +22°C° 0.1 mm 1 mps 684 mmHg 65%
    01:00 +22°C° 0 mm 1 mps 684 mmHg 66%
    02:00 +21°C° 0 mm 1 mps 684 mmHg 66%
    03:00 +21°C° 0 mm 1 mps 684 mmHg 66%
    04:00 +21°C° 0 mm 1 mps 684 mmHg 65%
    05:00 +22°C° 0 mm 1 mps 685 mmHg 64%
    06:00 +23°C° 0 mm 1 mps 685 mmHg 62%
    07:00 +24°C° 0 mm 1 mps 685 mmHg 57%
    08:00 +26°C° 0 mm 1 mps 685 mmHg 51%
    09:00 +28°C° 0 mm 1 mps 686 mmHg 45%
    10:00 +29°C° 0 mm 2 mps 686 mmHg 42%
    11:00 +30°C° 0 mm 2 mps 686 mmHg 38%
    12:00 +32°C° 0 mm 2 mps 686 mmHg 35%
    13:00 +32°C° 0 mm 2 mps 686 mmHg 33%
    14:00 +34°C° 0 mm 2 mps 686 mmHg 31%
    15:00 +35°C° 0 mm 2 mps 685 mmHg 29%
    16:00 +35°C° 0 mm 2 mps 685 mmHg 30%
    17:00 +34°C° 0 mm 2 mps 685 mmHg 31%
    18:00 +34°C° 0 mm 2 mps 685 mmHg 32%
    19:00 +31°C° 0 mm 2 mps 685 mmHg 37%
    20:00 +29°C° 0 mm 3 mps 686 mmHg 42%
    21:00 +27°C° 0 mm 3 mps 686 mmHg 46%
    22:00 +26°C° 0.1 mm 3 mps 686 mmHg 50%
    23:00 +25°C° 0.1 mm 2 mps 686 mmHg 54%

    23 June, Sunday

    Time Temperature Precipitation Wind Pressure Humidity
    00:00 +24°C° 0.1 mm 1 mps 685 mmHg 57%
    01:00 +23°C° 0.1 mm 2 mps 685 mmHg 59%
    02:00 +23°C° 0.1 mm 2 mps 685 mmHg 61%
    03:00 +21°C° 0.1 mm 2 mps 685 mmHg 63%
    04:00 +23°C° 0.1 mm 2 mps 686 mmHg 62%
    05:00 +24°C° 0.1 mm 1 mps 686 mmHg 60%
    06:00 +24°C° 0.1 mm 1 mps 686 mmHg 59%
    07:00 +26°C° 0 mm 1 mps 686 mmHg 54%
    08:00 +28°C° 0 mm 1 mps 686 mmHg 48%
    09:00 +30°C° 0 mm 1 mps 687 mmHg 43%
    10:00 +31°C° 0.1 mm 1 mps 687 mmHg 39%
    11:00 +32°C° 0.1 mm 1 mps 687 mmHg 36%
    12:00 +34°C° 0.1 mm 1 mps 687 mmHg 32%
    13:00 +35°C° 0 mm 1 mps 686 mmHg 30%
    14:00 +35°C° 0 mm 1 mps 686 mmHg 27%
    15:00 +37°C° 0 mm 2 mps 686 mmHg 25%
    16:00 +36°C° 0 mm 2 mps 686 mmHg 27%
    17:00 +36°C° 0 mm 2 mps 686 mmHg 29%
    18:00 +35°C° 0 mm 2 mps 686 mmHg 32%
    19:00 +33°C° 0.1 mm 3 mps 686 mmHg 37%
    20:00 +30°C° 0.1 mm 3 mps 686 mmHg 42%
    21:00 +27°C° 0.1 mm 3 mps 686 mmHg 47%
    22:00 +26°C° 0.2 mm 3 mps 686 mmHg 51%
    23:00 +25°C° 0.2 mm 3 mps 686 mmHg 56%
    Show more